Regional Weather Roundup
Issued by NWS Goodland, KS

Home | Current Version | Previous Version | Text Only | Print | Product List | Glossary Off
Versions: 1 2 3 4 5 6 7 8 9 10 11 12 13 14 15 16 17 18 19 20 21 22 23 24 25 26 27 28 29 30 31 32 33 34 35 36 37 38 39 40 41 42 43 44 45 46 47 48 49 50

000
ASUS43 KGLD 232159
RWRGLD

GOODLAND FORECAST AREA HOURLY WEATHER ROUNDUP
NATIONAL WEATHER SERVICE GOODLAND KS
400 PM MDT TUE MAY 23 2017

...OFFICIAL OBSERVATIONS...

CITY           SKY/WX    TMP DP  RH WIND       PRES   REMARKS
GOODLAND KS    CLOUDY    57  38  48 NW22G29   30.02F
HILL CITY KS   PTSUNNY   64  35  34 N25G35    29.97S
IMPERIAL NEB   CLOUDY    60  33  36 N17G32    30.02F
MCCOOK NEB     CLOUDY    61  35  37 N35G43    29.99S
AKRON CO       CLOUDY    57  32  38 N24       30.09F
BURLINGTON CO  CLOUDY    62  37  39 N20G35    30.06F
LIMON CO       MOSUNNY   60  32  34 N26G38    30.11F
$$

...UNOFFICIAL OBSERVATIONS...

CITY           SKY/WX    TMP DP  RH WIND       PRES   REMARKS
LENORA KS        N/A     60  32  34 MISG        N/A
NORTON KS      CLOUDY    61  30  31 NW30G37   29.96S
SHARON SPRINGS   N/A     59  40  48 NW17G28     N/A
TRENTON NEB      N/A     58  32  37 NW12        N/A
KIT CARSON CO    N/A     59  35  41 MISG        N/A
YUMA CO        CLOUDY    55  25  30 N15G25    30.07F
$$



USA.gov is the U.S. government's official web portal to all federal, state and local government web resources and services.